Location: Arbon
(43.0005°N, 0.7472°E)
Time: 00:03:23
(UTC+00:00)

S-56A Canister/Altair - Pass Details

Date: 07 December 2020
Orbit: 633 x 2499 km, 38.9° (Epoch: 19 January)

Event Time Altitude Azimuth Distance (km) Brightness Sun altitude
Rises 21:03:15 0° 279° (W) 5,619 12.6 -50.3°
Reaches altitude 10° 21:07:26 10° 275° (W) 4,357 11.8 -51.0°
Enters shadow 21:13:24 31° 261° (W) 2,608 10.3 -52.1°
